This is the latest recevied weather packets stored in our database for station/object SQ9RHX-11. If no packets are shown the sender has not sent any weather packets the latest 10 day(s).
| Time | Temp. | Humidity | Pressure | Rain* | Wind** | Luminosity | Snow |
|---|---|---|---|---|---|---|---|
| 1777676516 | 5° C | 72% | 1026.3 hPa | - | - | - | - |
| 1777674716 | 5.56° C | 71% | 1026.3 hPa | - | - | - | - |
| 1777672918 | 5.56° C | 68% | 1026.3 hPa | - | - | - | - |
| 1777671118 | 6.67° C | 68% | 1026.3 hPa | - | - | - | - |
| 1777669319 | 7.22° C | 64% | 1026.2 hPa | - | - | - | - |
| 1777667519 | 7.78° C | 62% | 1026.2 hPa | - | - | - | - |
| 1777665720 | 8.89° C | 58% | 1026.1 hPa | - | - | - | - |
| 1777663920 | 10° C | 54% | 1026.1 hPa | - | - | - | - |
| 1777662121 | 12.22° C | 48% | 1026 hPa | - | - | - | - |
| 1777660321 | 15° C | 43% | 1025.8 hPa | - | - | - | - |
| 1777658523 | 17.78° C | 40% | 1025.6 hPa | - | - | - | - |
| 1777654923 | 20.56° C | 35% | 1025.4 hPa | - | - | - | - |
| 1777653124 | 21.11° C | 33% | 1025.6 hPa | - | - | - | - |
| 1777651325 | 22.22° C | 32% | 1025.7 hPa | - | - | - | - |
| 1777649526 | 22.78° C | 31% | 1025.8 hPa | - | - | - | - |
| 1777647726 | 22.78° C | 31% | 1025.9 hPa | - | - | - | - |
| 1777645927 | 22.78° C | 31% | 1026.2 hPa | - | - | - | - |
| 1777644127 | 23.33° C | 30% | 1026.3 hPa | - | - | - | - |
| 1777642328 | 26.11° C | 28% | 1026.5 hPa | - | - | - | - |
| 1777640528 | 27.22° C | 28% | 1026.6 hPa | - | - | - | - |
| 1777638728 | 24.44° C | 30% | 1027 hPa | - | - | - | - |
| 1777636928 | 23.33° C | 32% | 1027.5 hPa | - | - | - | - |
| 1777635128 | 22.78° C | 31% | 1027.6 hPa | - | - | - | - |
| 1777633328 | 22.22° C | 32% | 1027.8 hPa | - | - | - | - |
| 1777631529 | 21.67° C | 32% | 1028 hPa | - | - | - | - |
* Rain since midnight (hover to see other rain measurements)
** Current wind speed in m/s (hover to see current wind gust speed)